This is the latest recevied weather packets stored in our database for station/object KA3BQE-13. If no packets are shown the sender has not sent any weather packets the latest 10 day(s).
| Time | Temp. | Humidity | Pressure | Rain* | Wind** | Luminosity | Snow |
|---|---|---|---|---|---|---|---|
| 1777905749 | 21.11° C | 63% | 1005.9 hPa | 0 mm | - | 541 W/m² | - |
| 1777905446 | 21.11° C | 61% | 1005.8 hPa | 0 mm | - | 522 W/m² | - |
| 1777905144 | 20.56° C | 64% | 1005.8 hPa | 0 mm | - | 506 W/m² | - |
| 1777904841 | 20.56° C | 65% | 1005.8 hPa | 0 mm | - | 488 W/m² | - |
| 1777904538 | 20° C | 65% | 1006.1 hPa | 0 mm | - | 476 W/m² | - |
| 1777904235 | 19.44° C | 68% | 1006.4 hPa | 0 mm | - | 465 W/m² | - |
| 1777903932 | 19.44° C | 67% | 1006.1 hPa | 0 mm | - | 448 W/m² | - |
| 1777903628 | 19.44° C | 68% | 1006.3 hPa | 0 mm | - | 433 W/m² | - |
| 1777903324 | 18.89° C | 68% | 1006.3 hPa | 0 mm | - | 414 W/m² | - |
| 1777903021 | 18.33° C | 69% | 1006.3 hPa | 0 mm | - | 397 W/m² | - |
| 1777902717 | 17.78° C | 70% | 1006.6 hPa | 0 mm | - | 375 W/m² | - |
| 1777902415 | 18.33° C | 70% | 1006.6 hPa | 0 mm | - | 327 W/m² | - |
| 1777902111 | 18.33° C | 71% | 1006.6 hPa | 0 mm | - | 375 W/m² | - |
| 1777901810 | 18.33° C | 71% | 1006.6 hPa | 0 mm | - | 309 W/m² | - |
| 1777901507 | 17.78° C | 72% | 1006.7 hPa | 0 mm | - | 233 W/m² | - |
| 1777901204 | 17.78° C | 71% | 1006.9 hPa | 0 mm | - | 275 W/m² | - |
| 1777900902 | 17.78° C | 71% | 1007.1 hPa | 0 mm | - | 285 W/m² | - |
| 1777900599 | 17.78° C | 71% | 1007.3 hPa | 0 mm | - | 219 W/m² | - |
| 1777900296 | 17.78° C | 73% | 1007.5 hPa | 0 mm | - | 246 W/m² | - |
| 1777899992 | 17.22° C | 73% | 1007.3 hPa | 0 mm | - | 242 W/m² | - |
| 1777899689 | 17.22° C | 73% | 1007.4 hPa | 0 mm | - | 190 W/m² | - |
| 1777899387 | 16.67° C | 75% | 1007.4 hPa | 0 mm | - | 157 W/m² | - |
| 1777899084 | 16.11° C | 76% | 1007.6 hPa | 0 mm | - | 135 W/m² | - |
| 1777898781 | 15.56° C | 77% | 1007.5 hPa | 0 mm | - | 120 W/m² | - |
| 1777898479 | 16.11° C | 78% | 1007.5 hPa | 0 mm | - | 109 W/m² | - |
* Rain latest hour (hover to see other rain measurements)
** Current wind speed in m/s (hover to see current wind gust speed)